Voltar ao catálogo

COSMOS 2117

AtivoMilitarPO
NORAD 21031·PAYLOAD·🇷🇺 Russia

Lançado Dec 22, 1990 de Plesetsk Cosmodrome

Loading…

Próximas Passagens (próximas 24 horas)

TLE

AtualizadoSource: Space-Track

Época: Sep 14, 2026, 02:33 UTC

1 21031U 90114D   26257.10626256  .00000040  00000-0  15969-3 0  9999
2 21031  82.5764 140.3258 0007133 221.4628 292.9729 12.65033480649510

Acompanhe COSMOS 2117 em tempo real com AllMySat

Download on the App Store